Lovelock, NV

4:35 PM PDT on August 25, 2016 (GMT -0700)
Derby

Weather History for KLOL - March, 2014

Change the Weather History Date:

Wednesday, March 26, 2014

  Actual Average Record
Temperature  
Mean Temperature 44 °F -  
Max Temperature 54 °F 59 °F 77 °F (1966)
Min Temperature 36 °F 28 °F 12 °F (1976)
Degree Days  
Heating Degree Days 20    
Moisture  
Dew Point 25 °F    
Average Humidity 45    
Maximum Humidity 67    
Minimum Humidity 25    
Precipitation  
Precipitation 0.00 in - - ()
Sea Level Pressure  
Sea Level Pressure 29.67 in    
Wind  
Wind Speed 11 mph (WSW)    
Max Wind Speed 21 mph    
Max Gust Speed 25 mph    
Visibility 10 miles    
Events      
Averages and records for this station are not official NWS values.
T = Trace of Precipitation, MM = Missing Value Source: NWS Daily Summary

Daily Weather History Graph

Daily Weather History Graph

Search for Another Location

Airport or City:

Trip Planner

Search our weather history database for the weather conditions in past years. The results will help you decide how hot, cold, wet, or windy it might be!

Date:

Astronomy

Mar. 26, 2014 Rise Set
Actual Time 6:47 AM PDT 7:12 PM PDT
Civil Twilight 6:20 AM PDT 7:39 PM PDT
Nautical Twilight 5:48 AM PDT 8:11 PM PDT
Astronomical Twilight 5:16 AM PDT 8:44 PM PDT
Moon 4:00 AM PDT (3/26) 2:56 PM PDT (3/26)
Length of Visible Light 13h 19m
Length of Day
12h 24m
Waning Crescent, 21% of the Moon is Illuminated
Mar 26
Waning Crescent
Mar 30
New
Apr 7
First Quarter
Apr 15
Full
Apr 22
Last Quarter

Hourly Weather History & Observations

Time (PDT) Temp. Windchill Dew Point Humidity Pressure Visibility Wind Dir Wind Speed Gust Speed Precip Events Conditions
12:53 AM 46.9 °F - 32.0 °F 56% 29.64 in 9.0 mi West 15.0 mph - N/A   Overcast
1:53 AM 46.9 °F - 30.9 °F 54% 29.64 in 10.0 mi West 9.2 mph - 0.00 in   Overcast
2:53 AM 46.0 °F 40.6 °F 28.9 °F 51% 29.63 in 10.0 mi West 11.5 mph - N/A   Mostly Cloudy
3:53 AM 45.0 °F 40.6 °F 27.0 °F 49% 29.62 in 10.0 mi WSW 8.1 mph - N/A   Partly Cloudy
4:53 AM 39.9 °F 36.7 °F 26.1 °F 58% 29.65 in 10.0 mi SSE 4.6 mph - N/A   Partly Cloudy
5:53 AM 41.0 °F - 24.1 °F 51% 29.65 in 10.0 mi Calm Calm - N/A   Partly Cloudy
6:53 AM 42.1 °F 37.1 °F 27.0 °F 55% 29.66 in 10.0 mi NNW 8.1 mph - N/A   Overcast
7:53 AM 42.1 °F - 27.0 °F 55% 29.68 in 10.0 mi Calm Calm - N/A   Overcast
8:53 AM 44.1 °F 41.5 °F 28.0 °F 53% 29.68 in 10.0 mi South 4.6 mph - N/A   Partly Cloudy
9:53 AM 48.9 °F - 16.0 °F 27% 29.68 in 10.0 mi West 15.0 mph 24.2 mph N/A   Clear
10:53 AM 50.0 °F - 17.1 °F 27% 29.69 in 10.0 mi WSW 17.3 mph - N/A   Clear
11:53 AM 52.0 °F - 17.1 °F 25% 29.68 in 10.0 mi WNW 9.2 mph 25.3 mph N/A   Partly Cloudy
12:53 PM 53.1 °F - 19.0 °F 26% 29.67 in 10.0 mi West 15.0 mph 23.0 mph N/A   Overcast
1:53 PM 52.0 °F - 19.9 °F 28% 29.65 in 10.0 mi WNW 6.9 mph - N/A   Overcast
2:53 PM 53.1 °F - 19.9 °F 27% 29.63 in 10.0 mi West 13.8 mph 23.0 mph N/A   Overcast
3:53 PM 52.0 °F - 21.0 °F 30% 29.64 in 10.0 mi West 10.4 mph - N/A   Overcast
4:53 PM 52.0 °F - 24.1 °F 34% 29.64 in 10.0 mi West 19.6 mph - N/A   Overcast
5:53 PM 52.0 °F - 26.1 °F 37% 29.64 in 10.0 mi West 20.7 mph 24.2 mph N/A   Overcast
6:53 PM 48.0 °F - 30.9 °F 52% 29.67 in 10.0 mi WSW 20.7 mph - N/A   Overcast
7:53 PM 42.1 °F 40.2 °F 30.0 °F 62% 29.70 in 10.0 mi SW 3.5 mph - 0.00 in   Clear
8:53 PM 36.0 °F 31.1 °F 26.1 °F 67% 29.74 in 10.0 mi SSW 5.8 mph - N/A   Clear
9:53 PM 39.9 °F 34.5 °F 27.0 °F 60% 29.73 in 10.0 mi WSW 8.1 mph - N/A   Overcast
10:53 PM 42.1 °F 35.2 °F 25.0 °F 51% 29.74 in 10.0 mi WSW 12.7 mph - N/A   Scattered Clouds
11:53 PM 41.0 °F 35.8 °F 25.0 °F 53% 29.75 in 10.0 mi SSW 8.1 mph - N/A   Mostly Cloudy